Location: Newark
(52.3500°N, 175.9667°E)
Time: 21:52:59
(UTC+00:00)

Altair - Pass Details

Date: 26 April 2021
Orbit: 1501 x 1683 km, 47.2° (Epoch: 05 May)

Event Time Altitude Azimuth Distance (km) Brightness Sun altitude
Rises 18:20:05 0° 253° (WSW) 4,889 9.5 11.8°
Reaches altitude 10° 18:23:18 10° 251° (WSW) 3,883 9.1 12.3°
Maximum altitude 18:33:02 65° 173° (S) 1,737 8.1 13.8°
Drops below altitude 10° 18:42:23 10° 95° (E) 3,742 12.1 15.2°
Sets 18:45:25 0° 92° (E) 4,704 11.9 15.7°
